Time,TemperatureF,DewpointF,PressureIn,WindDirection,WindDirectionDegrees,WindSpeedMPH,WindSpeedGustMPH,Humidity,HourlyPrecipIn,Conditions,Clouds,dailyrainin,SoftwareType,DateUTC
2013-05-23 00:02:00,72.0,72.0,29.70,North,0,0.0,0.0,99,0.00,,,0.00,,2013-05-22 14:02:00,
2013-05-23 00:11:00,72.0,72.0,29.70,North,0,0.0,0.0,99,0.00,,,0.00,,2013-05-22 14:11:00,
2013-05-23 00:21:00,72.0,72.0,29.69,North,0,0.0,0.0,99,0.00,,,0.00,,2013-05-22 14:21:00,
2013-05-23 00:32:00,72.0,72.0,29.69,North,0,0.0,0.0,99,0.00,,,0.00,,2013-05-22 14:32:00,
2013-05-23 00:41:00,72.0,72.0,29.69,North,0,0.0,0.0,99,0.00,,,0.00,,2013-05-22 14:41:00,
2013-05-23 00:52:00,72.0,72.0,29.68,North,0,0.0,0.0,99,0.00,,,0.00,,2013-05-22 14:52:00,
2013-05-23 01:01:00,72.0,72.0,29.68,North,0,0.0,0.0,99,0.00,,,0.00,,2013-05-22 15:01:00,
2013-05-23 01:11:00,72.0,72.0,29.68,North,0,0.0,0.0,99,0.00,,,0.00,,2013-05-22 15:11:00,
2013-05-23 01:21:00,72.0,72.0,29.67,North,0,0.0,0.0,99,0.00,,,0.00,,2013-05-22 15:21:00,
2013-05-23 01:32:00,72.0,72.0,29.67,North,0,0.0,0.0,99,0.00,,,0.00,,2013-05-22 15:32:00,
2013-05-23 01:42:00,72.0,72.0,29.67,North,0,0.0,0.0,99,0.00,,,0.00,,2013-05-22 15:42:00,
2013-05-23 01:53:00,72.0,72.0,29.67,North,1,0.0,1.0,99,0.00,,,0.00,,2013-05-22 15:53:00,
2013-05-23 02:02:00,72.0,72.0,29.67,North,1,0.0,1.0,99,0.00,,,0.00,,2013-05-22 16:02:00,
2013-05-23 02:12:00,72.0,72.0,29.67,North,1,0.0,1.0,99,0.00,,,0.00,,2013-05-22 16:12:00,
2013-05-23 02:23:00,72.0,72.0,29.67,NE,36,0.0,2.0,99,0.00,,,0.00,,2013-05-22 16:23:00,
2013-05-23 02:32:00,72.0,72.0,29.66,North,1,0.0,1.0,99,0.00,,,0.00,,2013-05-22 16:32:00,
2013-05-23 02:42:00,72.0,72.0,29.66,North,1,0.0,1.0,99,0.00,,,0.00,,2013-05-22 16:42:00,
2013-05-23 02:52:00,72.0,72.0,29.66,East,90,0.0,2.0,99,0.00,,,0.00,,2013-05-22 16:52:00,
2013-05-23 03:02:00,72.0,72.0,29.66,East,90,0.0,2.0,99,0.00,,,0.00,,2013-05-22 17:02:00,
2013-05-23 03:11:00,72.0,72.0,29.65,North,1,0.0,2.0,99,0.00,,,0.00,,2013-05-22 17:11:00,
2013-05-23 03:22:00,72.0,72.0,29.65,North,1,0.0,2.0,99,0.00,,,0.00,,2013-05-22 17:22:00,
2013-05-23 03:32:00,72.0,72.0,29.65,North,1,0.0,2.0,99,0.00,,,0.00,,2013-05-22 17:32:00,
2013-05-23 03:42:00,72.0,72.0,29.65,North,1,0.0,2.0,99,0.00,,,0.00,,2013-05-22 17:42:00,
2013-05-23 03:53:00,72.0,72.0,29.65,East,90,0.0,2.0,99,0.00,,,0.00,,2013-05-22 17:53:00,
2013-05-23 04:02:00,72.0,72.0,29.65,East,90,0.0,2.0,99,0.00,,,0.00,,2013-05-22 18:02:00,
2013-05-23 04:14:00,72.0,72.0,29.65,East,90,0.0,2.0,99,0.00,,,0.00,,2013-05-22 18:14:00,
2013-05-23 04:22:00,72.0,72.0,29.65,West,270,0.0,2.0,99,0.00,,,0.00,,2013-05-22 18:22:00,
2013-05-23 04:34:00,72.0,72.0,29.65,West,270,0.0,2.0,99,0.00,,,0.00,,2013-05-22 18:34:00,
2013-05-23 04:42:00,72.0,72.0,29.65,West,270,0.0,2.0,99,0.00,,,0.00,,2013-05-22 18:42:00,
2013-05-23 04:52:00,71.0,71.0,29.65,North,0,0.0,0.0,99,0.00,,,0.00,,2013-05-22 18:52:00,
2013-05-23 05:02:00,71.0,71.0,29.65,North,0,0.0,0.0,99,0.00,,,0.00,,2013-05-22 19:02:00,
2013-05-23 05:11:00,71.0,71.0,29.65,North,0,0.0,0.0,99,0.00,,,0.00,,2013-05-22 19:11:00,
2013-05-23 05:21:00,71.0,71.0,29.65,North,0,0.0,0.0,99,0.00,,,0.00,,2013-05-22 19:21:00,
2013-05-23 05:31:00,71.0,71.0,29.65,North,0,0.0,0.0,99,0.00,,,0.00,,2013-05-22 19:31:00,
2013-05-23 05:41:00,73.0,73.0,29.66,NNE,33,1.0,4.0,99,0.00,,,0.00,,2013-05-22 19:41:00,
2013-05-23 05:52:00,73.0,73.0,29.66,NNE,33,1.0,4.0,99,0.00,,,0.00,,2013-05-22 19:52:00,
2013-05-23 06:02:00,74.0,74.0,29.66,NNE,26,0.0,4.0,99,0.00,,,0.00,,2013-05-22 20:02:00,
2013-05-23 06:11:00,73.0,73.0,29.66,North,9,1.0,4.0,99,0.00,,,0.00,,2013-05-22 20:11:00,
2013-05-23 06:21:00,73.0,73.0,29.66,North,9,1.0,4.0,99,0.00,,,0.00,,2013-05-22 20:21:00,
2013-05-23 06:32:00,73.0,73.0,29.66,North,9,1.0,4.0,99,0.00,,,0.00,,2013-05-22 20:32:00,
2013-05-23 06:41:00,73.0,73.0,29.67,North,349,0.0,2.0,99,0.00,,,0.00,,2013-05-22 20:41:00,
2013-05-23 06:52:00,73.0,73.0,29.67,North,349,0.0,2.0,99,0.00,,,0.00,,2013-05-22 20:52:00,
2013-05-23 07:01:00,73.0,73.0,29.67,North,349,0.0,2.0,99,0.00,,,0.00,,2013-05-22 21:01:00,
2013-05-23 07:11:00,73.0,73.0,29.67,North,349,0.0,2.0,99,0.00,,,0.00,,2013-05-22 21:11:00,
2013-05-23 07:21:00,72.0,72.0,29.68,North,0,0.0,0.0,99,0.00,,,0.00,,2013-05-22 21:21:00,
2013-05-23 07:32:00,72.0,72.0,29.68,North,0,0.0,0.0,99,0.00,,,0.00,,2013-05-22 21:32:00,
2013-05-23 07:42:00,72.0,72.0,29.68,North,0,0.0,0.0,99,0.00,,,0.00,,2013-05-22 21:42:00,
2013-05-23 07:53:00,74.0,74.0,29.69,North,0,0.0,0.0,99,0.00,,,0.00,,2013-05-22 21:53:00,
2013-05-23 08:02:00,74.0,74.0,29.69,North,0,0.0,0.0,99,0.00,,,0.00,,2013-05-22 22:02:00,
2013-05-23 08:12:00,74.0,74.0,29.69,North,0,0.0,0.0,99,0.00,,,0.00,,2013-05-22 22:12:00,
2013-05-23 08:22:00,74.0,74.0,29.69,North,0,0.0,0.0,99,0.00,,,0.00,,2013-05-22 22:22:00,
2013-05-23 08:33:00,87.0,87.0,29.70,WSW,248,0.0,2.0,99,0.00,,,0.00,,2013-05-22 22:33:00,
2013-05-23 08:42:00,90.0,88.0,29.70,NE,48,1.0,3.0,93,0.00,,,0.00,,2013-05-22 22:42:00,
2013-05-23 08:52:00,90.0,88.0,29.70,NE,48,1.0,3.0,93,0.00,,,0.00,,2013-05-22 22:52:00,
2013-05-23 09:02:00,90.0,88.0,29.70,NE,48,1.0,3.0,93,0.00,,,0.00,,2013-05-22 23:02:00,
2013-05-23 09:10:00,93.0,85.0,29.71,NE,35,0.0,4.0,78,0.00,,,0.00,,2013-05-22 23:10:00,
2013-05-23 09:12:00,90.0,88.0,29.70,NE,48,1.0,3.0,93,0.00,,,0.00,,2013-05-22 23:12:00,
2013-05-23 09:21:00,92.0,85.0,29.72,NNE,27,0.0,4.0,81,0.00,,,0.00,,2013-05-22 23:21:00,
2013-05-23 09:32:00,93.0,85.0,29.71,NE,35,0.0,4.0,78,0.00,,,0.00,,2013-05-22 23:32:00,
2013-05-23 09:42:00,93.0,85.0,29.71,NE,35,0.0,4.0,78,0.00,,,0.00,,2013-05-22 23:42:00,
2013-05-23 09:52:00,93.0,85.0,29.71,NE,35,0.0,4.0,78,0.00,,,0.00,,2013-05-22 23:52:00,
2013-05-23 10:01:00,93.0,85.0,29.71,NE,35,0.0,4.0,78,0.00,,,0.00,,2013-05-23 00:01:00,
2013-05-23 10:22:00,93.0,85.0,29.71,NE,47,0.0,5.0,79,0.00,,,0.00,,2013-05-23 00:22:00,
2013-05-23 10:31:00,93.0,85.0,29.71,NE,47,0.0,5.0,79,0.00,,,0.00,,2013-05-23 00:31:00,
2013-05-23 10:42:00,93.0,85.0,29.71,NE,47,0.0,5.0,79,0.00,,,0.00,,2013-05-23 00:42:00,
2013-05-23 10:51:00,93.0,87.0,29.69,NNE,33,2.0,4.0,82,0.00,,,0.00,,2013-05-23 00:51:00,
2013-05-23 11:01:00,93.0,87.0,29.69,NNE,33,2.0,4.0,82,0.00,,,0.00,,2013-05-23 01:01:00,
2013-05-23 11:11:00,93.0,87.0,29.69,NNE,33,2.0,4.0,82,0.00,,,0.00,,2013-05-23 01:11:00,
2013-05-23 11:21:00,91.0,86.0,29.68,NE,44,2.0,5.0,86,0.00,,,0.00,,2013-05-23 01:21:00,
2013-05-23 11:32:00,91.0,86.0,29.68,NE,44,2.0,5.0,86,0.00,,,0.00,,2013-05-23 01:32:00,
2013-05-23 11:42:00,89.0,87.0,29.68,ENE,67,3.0,7.0,94,0.00,,,0.00,,2013-05-23 01:42:00,
2013-05-23 11:52:00,89.0,87.0,29.68,ENE,67,3.0,7.0,94,0.00,,,0.00,,2013-05-23 01:52:00,
2013-05-23 12:01:00,89.0,87.0,29.68,ENE,67,3.0,7.0,94,0.00,,,0.00,,2013-05-23 02:01:00,
2013-05-23 12:11:00,89.0,87.0,29.68,ENE,67,3.0,7.0,94,0.00,,,0.00,,2013-05-23 02:11:00,
2013-05-23 12:21:00,91.0,86.0,29.66,East,84,2.0,6.0,86,0.00,,,0.00,,2013-05-23 02:21:00,
2013-05-23 12:31:00,87.0,86.0,29.65,NE,54,1.0,6.0,96,0.00,,,0.00,,2013-05-23 02:31:00,
2013-05-23 12:42:00,87.0,86.0,29.65,NE,54,1.0,6.0,96,0.00,,,0.00,,2013-05-23 02:42:00,
2013-05-23 12:51:00,87.0,86.0,29.65,NE,54,1.0,6.0,96,0.00,,,0.00,,2013-05-23 02:51:00,
2013-05-23 13:01:00,86.0,86.0,29.65,ESE,107,2.0,4.0,99,0.00,,,0.00,,2013-05-23 03:01:00,
2013-05-23 13:11:00,86.0,86.0,29.65,ESE,107,2.0,4.0,99,0.00,,,0.00,,2013-05-23 03:11:00,
2013-05-23 13:21:00,91.0,87.0,29.64,NE,51,0.0,5.0,88,0.00,,,0.00,,2013-05-23 03:21:00,
2013-05-23 13:33:00,92.0,86.0,29.64,ENE,67,2.0,6.0,84,0.00,,,0.00,,2013-05-23 03:33:00,
2013-05-23 13:43:00,92.0,86.0,29.64,ENE,67,2.0,6.0,84,0.00,,,0.00,,2013-05-23 03:43:00,
2013-05-23 13:53:00,92.0,87.0,29.65,ENE,67,2.0,7.0,86,0.00,,,0.00,,2013-05-23 03:53:00,
2013-05-23 14:02:00,92.0,87.0,29.65,ENE,67,2.0,7.0,86,0.00,,,0.00,,2013-05-23 04:02:00,
2013-05-23 14:12:00,92.0,87.0,29.65,ENE,67,2.0,7.0,86,0.00,,,0.00,,2013-05-23 04:12:00,
2013-05-23 14:22:00,88.0,87.0,29.62,ENE,74,2.0,6.0,97,0.00,,,0.00,,2013-05-23 04:22:00,
2013-05-23 14:33:00,89.0,87.0,29.62,NE,47,1.0,4.0,94,0.00,,,0.00,,2013-05-23 04:33:00,
2013-05-23 14:40:00,85.0,85.0,29.62,ENE,74,0.0,5.0,99,0.00,,,0.00,,2013-05-23 04:40:00,
2013-05-23 14:42:00,89.0,87.0,29.62,NE,47,1.0,4.0,94,0.00,,,0.00,,2013-05-23 04:42:00,
2013-05-23 14:52:00,89.0,87.0,29.62,NE,47,1.0,4.0,94,0.00,,,0.00,,2013-05-23 04:52:00,
2013-05-23 15:02:00,85.0,85.0,29.62,ENE,74,0.0,5.0,99,0.00,,,0.00,,2013-05-23 05:02:00,
2013-05-23 15:11:00,85.0,85.0,29.62,ENE,74,0.0,5.0,99,0.00,,,0.00,,2013-05-23 05:11:00,
2013-05-23 15:21:00,85.0,85.0,29.62,ENE,74,0.0,5.0,99,0.00,,,0.00,,2013-05-23 05:21:00,
2013-05-23 15:32:00,85.0,85.0,29.62,ENE,74,0.0,5.0,99,0.00,,,0.00,,2013-05-23 05:32:00,
2013-05-23 16:02:00,82.0,82.0,29.62,NE,51,0.0,5.0,99,0.00,,,0.00,,2013-05-23 06:02:00,
2013-05-23 16:12:00,82.0,82.0,29.62,NE,51,0.0,5.0,99,0.00,,,0.00,,2013-05-23 06:12:00,
2013-05-23 16:21:00,82.0,82.0,29.62,ENE,74,0.0,3.0,99,0.00,,,0.00,,2013-05-23 06:21:00,
2013-05-23 16:31:00,82.0,82.0,29.62,ENE,74,0.0,3.0,99,0.00,,,0.00,,2013-05-23 06:31:00,
2013-05-23 16:40:00,80.0,80.0,29.63,NE,45,0.0,2.0,99,0.00,,,0.00,,2013-05-23 06:40:00,
2013-05-23 16:41:00,82.0,82.0,29.62,ENE,74,0.0,3.0,99,0.00,,,0.00,,2013-05-23 06:41:00,
2013-05-23 16:52:00,80.0,80.0,29.62,ENE,60,0.0,2.0,99,0.00,,,0.00,,2013-05-23 06:52:00,
2013-05-23 17:01:00,80.0,80.0,29.63,NE,45,0.0,2.0,99,0.00,,,0.00,,2013-05-23 07:01:00,
2013-05-23 17:11:00,80.0,80.0,29.63,NE,45,0.0,2.0,99,0.00,,,0.00,,2013-05-23 07:11:00,
2013-05-23 17:21:00,80.0,80.0,29.63,NE,45,0.0,2.0,99,0.00,,,0.00,,2013-05-23 07:21:00,
2013-05-23 17:31:00,80.0,80.0,29.63,NE,45,0.0,2.0,99,0.00,,,0.00,,2013-05-23 07:31:00,
2013-05-23 18:22:00,77.0,77.0,29.67,WSW,242,2.0,3.0,99,0.01,,,0.01,,2013-05-23 08:22:00,
2013-05-23 18:32:00,77.0,77.0,29.67,WSW,242,2.0,3.0,99,0.01,,,0.01,,2013-05-23 08:32:00,
2013-05-23 18:42:00,77.0,77.0,29.67,WSW,242,2.0,3.0,99,0.01,,,0.01,,2013-05-23 08:42:00,
2013-05-23 18:52:00,76.0,76.0,29.67,SW,226,1.0,2.0,99,0.02,,,0.02,,2013-05-23 08:52:00,
2013-05-23 19:01:00,76.0,76.0,29.67,SW,230,1.0,3.0,99,0.02,,,0.02,,2013-05-23 09:01:00,
2013-05-23 19:11:00,76.0,76.0,29.67,SW,230,1.0,3.0,99,0.02,,,0.02,,2013-05-23 09:11:00,
2013-05-23 19:21:00,76.0,76.0,29.67,SW,221,1.0,3.0,99,0.01,,,0.02,,2013-05-23 09:21:00,
2013-05-23 19:32:00,76.0,76.0,29.67,SW,223,1.0,3.0,99,0.01,,,0.02,,2013-05-23 09:32:00,
2013-05-23 19:42:00,76.0,76.0,29.67,SW,223,1.0,3.0,99,0.01,,,0.02,,2013-05-23 09:42:00,
2013-05-23 19:53:00,76.0,76.0,29.68,WSW,245,1.0,5.0,99,0.00,,,0.02,,2013-05-23 09:53:00,
2013-05-23 20:02:00,76.0,76.0,29.69,SW,225,2.0,3.0,99,0.00,,,0.02,,2013-05-23 10:02:00,
2013-05-23 20:12:00,76.0,76.0,29.69,SW,225,2.0,3.0,99,0.00,,,0.02,,2013-05-23 10:12:00,
2013-05-23 20:22:00,76.0,76.0,29.69,SW,225,2.0,3.0,99,0.00,,,0.02,,2013-05-23 10:22:00,
2013-05-23 20:32:00,75.0,75.0,29.70,SW,227,0.0,2.0,99,0.00,,,0.02,,2013-05-23 10:32:00,
2013-05-23 20:40:00,75.0,75.0,29.70,SW,229,1.0,4.0,99,0.00,,,0.02,,2013-05-23 10:40:00,
2013-05-23 20:42:00,75.0,75.0,29.70,SW,227,0.0,2.0,99,0.00,,,0.02,,2013-05-23 10:42:00,
2013-05-23 20:52:00,76.0,76.0,29.70,SW,235,0.0,4.0,99,0.00,,,0.02,,2013-05-23 10:52:00,
2013-05-23 21:02:00,75.0,75.0,29.70,SW,229,1.0,4.0,99,0.00,,,0.02,,2013-05-23 11:02:00,
2013-05-23 21:11:00,75.0,75.0,29.70,SW,229,1.0,4.0,99,0.00,,,0.02,,2013-05-23 11:11:00,
2013-05-23 21:21:00,75.0,75.0,29.70,SW,229,1.0,4.0,99,0.00,,,0.02,,2013-05-23 11:21:00,
2013-05-23 21:30:00,75.0,75.0,29.71,SW,225,0.0,2.0,99,0.00,,,0.02,,2013-05-23 11:30:00,
2013-05-23 21:32:00,75.0,75.0,29.70,SW,229,1.0,4.0,99,0.00,,,0.02,,2013-05-23 11:32:00,
2013-05-23 21:52:00,75.0,75.0,29.71,SW,225,0.0,2.0,99,0.00,,,0.02,,2013-05-23 11:52:00,
2013-05-23 22:01:00,75.0,75.0,29.71,SW,225,0.0,2.0,99,0.00,,,0.02,,2013-05-23 12:01:00,
2013-05-23 22:11:00,75.0,75.0,29.71,SW,225,0.0,2.0,99,0.00,,,0.02,,2013-05-23 12:11:00,
2013-05-23 22:21:00,75.0,75.0,29.71,SW,225,0.0,2.0,99,0.00,,,0.02,,2013-05-23 12:21:00,
2013-05-23 23:01:00,74.0,74.0,29.71,SW,225,1.0,2.0,99,0.00,,,0.02,,2013-05-23 13:01:00,
2013-05-23 23:10:00,74.0,74.0,29.70,SW,228,0.0,2.0,99,0.00,,,0.02,,2013-05-23 13:10:00,
2013-05-23 23:11:00,74.0,74.0,29.71,SW,225,1.0,2.0,99,0.00,,,0.02,,2013-05-23 13:11:00,
2013-05-23 23:21:00,74.0,74.0,29.72,SW,228,1.0,4.0,99,0.00,,,0.02,,2013-05-23 13:21:00,
2013-05-23 23:31:00,74.0,74.0,29.70,SW,228,0.0,2.0,99,0.00,,,0.02,,2013-05-23 13:31:00,
2013-05-23 23:41:00,74.0,74.0,29.70,SW,228,0.0,2.0,99,0.00,,,0.02,,2013-05-23 13:41:00,
2013-05-23 23:52:00,74.0,74.0,29.70,SW,228,0.0,2.0,99,0.00,,,0.02,,2013-05-23 13:52:00,